Regional Weather Roundup
Issued by NWS

Home | Current Version | Previous Version | Text Only | Print | Product List | Glossary On
Versions: 1 2 3 4 5 6 7 8 9 10 11 12 13 14 15 16 17 18 19 20 21 22 23 24 25 26 27 28 29 30 31 32 33 34 35 36 37 38 39 40 41 42 43 44 45 46 47 48 49 50
000
ASUS43 KDTX 301501
RWRMI
MICHIGAN HOURLY REGIONAL WEATHER ROUNDUP
NATIONAL WEATHER SERVICE DETROIT/PONTIAC MI
1100 AM EDT SAT MAY 30 2015

NOTE: "FAIR" INDICATES FEW OR NO CLOUDS BELOW 12,000 FEET WITH NO
SIGNIFICANT WEATHER AND/OR OBSTRUCTION TO VISIBILITY.

MIZ047>049-052>055-059>063-066>070-074>076-081>083-301600-
SOUTHEAST LOWER MICHIGAN

CITY           SKY/WX    TMP DP  RH WIND       PRES   REMARKS
ADRIAN         CLOUDY    76  66  71 W10       30.02S
ALMA           LGT RAIN  69  67  94 CALM      29.99S
ANN ARBOR      MOSUNNY   79  67  66 SW14      29.99F
BAD AXE        CLOUDY    71  65  81 W9        29.97R
CARO           CLOUDY    72  67  85 W8        29.97S
DETROIT CITY   MOSUNNY   78  66  66 W12       29.98F
DETROIT        PTSUNNY   80  67  64 SW10      30.00S
FLINT          CLOUDY    75  66  73 SW10      29.98S
GROSSE ILE     MOSUNNY   79  70  73 SW8       29.99S
HILLSDALE      PTSUNNY   77  66  69 W5        30.02F
HOWELL         RAIN      68  66  93 W8        30.00R

CITY           SKY/WX    TMP DP  RH WIND       PRES   REMARKS
JACKSON        PTSUNNY   70  66  87 SW3       30.00F
LAMBERTVILLE   MOSUNNY   79  64  61 W9        30.01F
LANSING        LGT RAIN  70  67  90 SW8       29.99F
LAPEER         PTSUNNY   78  64  60 W9        29.98S
MASON          CLOUDY    67  65  94 SW5       30.00F
MONROE         MOSUNNY   79  66  65 SW14      29.99F
MT. CLEMENS    PTSUNNY   79  68  69 W8        29.96S
PONTIAC        PTSUNNY   76  66  71 SW8       29.98F
PORT HOPE        N/A     60  58  92 CALM      29.98R
PORT HURON     CLOUDY    77  66  69 SW8       29.98S
TRI CITIES     LGT RAIN  71  65  81 W8        29.99R
MIDLAND        LGT RAIN  67  65  92 N5        29.99R
TROY           CLOUDY    78  67  69 SW9       30.00S
SAGINAW HB     CLOUDY    72  72 100 W10       29.98R
$$
MIZ043>046-050>051-056>058-064>065-071>073-077>080-301600-
SOUTHWEST LOWER MICHIGAN

CITY           SKY/WX    TMP DP  RH WIND       PRES   REMARKS
BATTLE CREEK   CLOUDY    71  67  87 SW8       30.01S
BENTON HARBOR  CLOUDY    69  67  93 W7        29.99S
BIG RAPIDS     LGT RAIN  60  57  89 N6        30.00S
COLDWATER      CLOUDY    74  65  74 W5        30.01S
FREMONT        LGT RAIN  63  62  97 N10       29.99S
HOLLAND        LGT RAIN  66  63  90 CALM      29.99F
GRAND RAPIDS   LGT RAIN  68  65  90 SW7       29.98F
IONIA          CLOUDY    70  67  92 SW8       29.98S
KALAMAZOO      LGT RAIN  71  66  84 SW6       30.01R
LUDINGTON      RAIN      51  48  90 N8        30.05S
MARSHALL       CLOUDY    71  68  88 SW7       30.00S
MOUNT PLEASANT RAIN      65  63  92 N6        29.99S
MUSKEGON       LGT RAIN  61  58  90 NE3       29.99S
SOUTH HAVEN    LGT RAIN  68  66  94 SW6       29.99S
$$
MIZ016>042-301600-
NORTHERN LOWER MICHIGAN

CITY           SKY/WX    TMP DP  RH WIND       PRES   REMARKS
ALPENA         LGT RAIN  58  54  86 N10       30.02R
BEAVER ISLAND  CLOUDY    49  44  81 N8        30.09R
BELLAIRE       LGT RAIN  49  47  91 NW3       30.08R
CADILLAC       LGT RAIN  52  51  94 N6        30.05R
CHARLEVOIX     LGT RAIN  47  46  99 NW7       30.12R
FRANKFORT      LGT RAIN  49  43  80 N7G17     30.08S
GAYLORD        LGT RAIN  52  51  97 VRB6      30.05R
GRAYLING       LGT RAIN  54  53  94 NW6       30.05R
HARBOR SPRINGS LGT RAIN  50  47  88 N8        30.07R
HOUGHTON LAKE  LGT RAIN  57  55  93 N8        30.03R FOG
MANISTEE       CLOUDY    50  46  87 N8        30.08R
OSCODA         CLOUDY    65  62  91 N9        29.98R
PELLSTON       LGT RAIN  51  47  86 N10       30.07R
ROGERS CITY    CLOUDY    51  49  93 NW12G17   30.04R
TRAVERSE CITY  LGT RAIN  49  47  93 N7        30.08R
$$
MIZ007>008-015-301600-
EASTERN UPPER MICHIGAN

CITY           SKY/WX    TMP DP  RH WIND       PRES   REMARKS
KINROSS        CLOUDY    48  45  87 N22       30.05R
MACKINAC ISLAN CLOUDY    50  48  93 N10G17    30.06R
NEWBERRY       PTSUNNY   49  42  76 N12G21    30.09R
S. S. MARIE    CLOUDY    56  46  69 N9G18     30.05R
$$
MIZ004>006-011>014-085-301600-
CENTRAL UPPER MICHIGAN

CITY           SKY/WX    TMP DP  RH WIND       PRES   REMARKS
MANISTIQUE     CLOUDY    54  43  67 N15G21    30.09R
ESCANABA       CLOUDY    52  37  58 N12       30.13R
MENOMINEE      CLOUDY    52  41  66 N14G20    30.12R
SAWYER-GWINN   PTSUNNY   45  39  81 N23G30    30.16R
$$
MIZ001>003-009>011-084-301600-
WESTERN UPPER MICHIGAN

CITY           SKY/WX    TMP DP  RH WIND       PRES   REMARKS
IRON MOUNTAIN  CLOUDY    51  41  68 N18       30.14R
HOUGHTON       CLOUDY    43  35  73 N16G25    30.22R
COPPER HARBOR    N/A     40  34  79 NE14      30.24R WCI  32
IRONWOOD       CLOUDY    43  36  75 N14G20    30.22R
$$

ABBREVIATIONS USED IN REMARKS
   TC - TEMPERATURE IN CELSIUS
  WCI - WIND CHILL INDEX
   HX - HEAT INDEX
  VSB - VISIBILITY




USA.gov is the U.S. government's official web portal to all federal, state and local government web resources and services.